Погода в Кюсюре

Погода в Кюсюре : погода сейчас, прогноз погоды и архив. Всё, что Вы хотите узнать о погоде в Кюсюре!

Хотите узнать прогноз погоды в Кюсюре? Тогда Вам сюда: Погода в Кюсюре

Поиск расширенной информации на нашем сайте:

Другие новости

Новости СМИ2

Главная страница сайта

Новости сайта

03.07.2017

Напоминаем, что на нашем специализированном сайте Метеоцентр.Азия вы можете получить высокодетализированные автоматические прогнозы погоды по пунктам России, СНГ и мира в авиационном формате (включающие направление и скорость ветра, видимость, явления погоды, количество и форму облачности, нижнюю и верхнюю границу облачности).


Погода в Кюсюре - сегодня

Время (UTC), дата Ветер
(°,м/с) 
Видим.   Явления Облачность Т
(°С)
Тd
(°С)
f(%) Тe
(°С)
Pmin
(гПа)
dP
(гПа)
Po
(мм)
O2
(г/м3)
Тmin Tmax R s Состояние
почвы
18 11.10.18 180 (Ю) 10 км  слаб. снег  10/10 600 м 
[Ns]
-1.4 -2.3 94 -3  1012.5  1.3  756  307           
21 11.10.18 180 (Ю) 10 км  слаб. снег  10/10 600 м 
[Ns]
-1.8 -2.7 94 -3  1009.4  0.9  754  306           
03 12.10.18 190 (Ю) 20000 м    10/10 600 м 
[Sc]
-1.1 -2.6 90 -2  1014.9  0.5  758  307           
06 12.10.18 тихо ()   20000 м    10/10 1000 м 
[Sc]
-0.6 -3.7 80 -1  1015.7  0.8  759  307           
09 12.10.18 тихо ()   20000 м    9/9 1000 м 
[Sc]
-1.2 -4.4 79 -1  1017  1.3  760  308           
15 12.10.18 080 (В) 10 км  слаб. снег  10/10 600 м 
[Sc]
-3 -4.3 91 -3  1018.5  0.7  761  310           
18 12.10.18 тихо ()   10 км  слаб. снег  10/10 600 м 
[Sc]
-2.9 -3.9 93 -3  1019.3  0.8  761  311           
21 12.10.18 180 (Ю) 10 км  слаб. снег  10/10 600 м 
[Sc]
-3 -4 93 -3  1020.2  0.8  762  311           
03 13.10.18 тихо ()   20000 м    9/4 600 м средняя 
[Sc|Ac und]
-1.9 -3.5 89 -2  1021.7  0.8  763  310           
06 13.10.18 тихо ()   20000 м    4/4 600 м 
[Sc]
-1.7 -5 78 -2  1022.9  1.2  764  310           
09 13.10.18 тихо ()   20000 м    10/10 600 м 
[Sc]
-3.3 -5.3 86 -3  1023.9  0.9  765  313           
12 13.10.18 тихо ()   20000 м    10/10 600 м 
[Sc]
-6 -6.4 97 -6  1024.8  0.9  765  316    -1       
15 13.10.18 тихо ()   10 км  дымка  10/10 600 м 
[Sc]
-9.5 -10.7 91 -10  1025.6  0.7  766  321           
18 13.10.18 тихо ()   4000 м  дымка  10/10 600 м 
[Sc]
-10.4 -11.7 90 -10  1026  0.4  766  322           
21 13.10.18 170 (Ю) 4000 м  дымка  10/10 600 м 
[Sc]
-11.9 -13.4 89 -12  1026.8  0.8  767  324           
06 14.10.18 тихо ()   20000 м    6/6 600 м 
[Sc]
-6.7 -7.6 93 -7  1025.3  -1.3  766  317           
09 14.10.18 180 (Ю) 20000 м    8/0 средняя, верхняя 
[Ac trans|Ci fib]
-9.6 -10.8 91 -11  1024.5  -0.9  765  321           
12 14.10.18 190 (Ю) 20000 м    10/0 средняя 
[Ac und]
-6.6 -8.2 88 -8  1022.4  -2  764  316    -6       
15 14.10.18 180 (Ю) 4000 м  слаб. снег  10/0 средняя 
[Ac As]
-2.6 -4.2 89 -6  1020.6  -1.7  762  311           
09 15.10.18 190 (Ю) 4{13}  20000 м    10/10 600 м 
[Sc]
-2.1 -5.5 77 -5  1020.2  0.9  762  310           
12 15.10.18 220 (ЮЗ) 9-15{16}  20000 м  позёмок  10/10 600 м 
[Sc]
-1.2 -5.1 75 -6  1019.9  -0.3  762  309    +0.8  0.8  155   
15 16.10.18 190 (Ю) 20000 м  в посл. час снег  10/10 600 м 
[Sc]
-3 -5.7 82 -4  1009.6  -1.9  754  308           
18 16.10.18 190 (Ю) 20000 м  {снег}  10/10 600 м 
[Sc]
-3.6 -6.2 82 -6  1007.4  -2.2  752  308           
21 16.10.18 180 (Ю) 20000 м    10/10 600 м 
[Sc]
-4.4 -6.4 86 -8  1007  -0.4  752  309           
21 18.10.18 200 (Ю) 4000 м  слаб. снег  10/10 300 м 
[Ns]
-4.2 -5.8 89 -6  1004.4  -0.4  750  308           
Время (UTC), дата Ветер
(°,м/с) 
Видим.   Явления Облачность Т
(°С)
Тd
(°С)
f(%) Тe
(°С)
Pmin
(гПа)
dP
(гПа)
Po
(мм)
O2
(г/м3)
Тmin Tmax R s Состояние
почвы

Для получения пояснительной информации подведите курсор к названию столбца.

ПОГОДА в Кюсюре - архив

Всё, что Вы хотите узнать о погоде в Кюсюре - удобно и подробно!

Выберите нужную дату (начиная с 1 января 2015* года) и нажмите кнопку "Найти".
Будут отображены архивные сводки погоды по пункту Кюсюр, начиная с указанной даты.


Отображать данные в формате CSV (для использования в таблицах Excel)


Внимание! Наш архив погоды предназначен исключительно для личного некоммерческого использования в познавательных целях. Если Вам необходимы официальные справки о состоянии погоды (для производственных, юридических, коммерческих и т.п. целей), обращайтесь в органы Росгидромета.

*Примечание: данная дата относится к архиву по метеостанциям СССР (Россия, СНГ, Балтия).
Архив по метеостанциям Зарубежной Европы и Азии (кроме Китая) хранится 10 дней, по другим регионам земного шара (Китай, Африка, Америка, Австралия, Океания) - 1 день.

Кюсюр - район местоположения метеостанции


Название, широта, долгота, высота метеостанции:
Кюсюр 70.7°ш. 127.4°д. 33 м над ур. моря [Российская Федерация]

Дополнительная информация

В oтличие oт бoльшинства пoгoдных сайтoв мы публикуем пoдрoбную метеoинфoрмацию в детальнoм прoфессиoнальнoм фoрмате.

Характеристики температуры и влажнoсти вoздуха измеряются на высoте 2 м в тени вдали oт зданий и деревьев.
Скoрoсть ветра измеряется на высoте 10 м (на урoвне рoста челoвека скoрoсть ветра ниже в 1.5-2 раза). Если метеoстанция нахoдится в гoрoде или в лесу, тo скoрoсть ветра занижена на 2-4 м/с пo сравнению с oткрытым местoм. Скoрoсть ветра над акватoриями крупных рек и oзёр, а также на вершинах хoлмoв на 2-5 м/с выше, чем в oбычных услoвиях.
Атмoсфернoе давление в разных тoчках местнoсти мoжет значительнo oтличаться oт давления на метеoстанции, в зависимoсти oт услoвий рельефа (при пoдъёме на 10 м давление пoнижается примернo на 1 мм рт.ст.).